18. Juni 2016

Flugvorbereitung

 

 

Wetterbriefing:

Unser Wetter in EDRY (alle Daten ohne Gewähr, keine Garantie für permanente Verfügbarkeit):

Link auf die Wunderground Webseite, falls Flash nicht funktioniert.

Dieser Ort konnte nicht gefunden werden

Aktuelles  METAR von Mannheim-City, EDFM:

METAR

EDFM 270920Z 16004KT 9999 BKN039 11/08 Q1027

Wetterinformationen für Piloten:

DWD pc_met Flugwetter gebührenpflichtiges Selfbriefing
AEROWEB Frankreich Selfbriefing (Registrierung notwendig)
AustroControl Flugwetter kostenlose Basisinformationen
MeteoSchweiz Aviatik kostenlose Basisinformation
 Windy  Winddaten, Bewölkung, Niederschlag

NOTAMS / VFR Bulletin / Flugplan

AIS Portal Flugvorbereitungsportal der DFS Flugsicherung

Routenplanung, Karten und Flugplätze:

FL95 VFR Flugplanung
Autorouter IFR Routing
rocketroute Europaweites IFR/VFR Routing
www.airports.de Flughafen – Informationen für Deutschland und Österreich

Allgemeine Informationen für Piloten:

Flugplatz Speyer Informationen von unserem Heimatflugplatz